www.pogodaiklimat.ru

Погода и климат >> Архив погоды >> Австралия >> Curtin Aero


ПОГОДА в Curtin Aero

  • Прогноз погоды в Curtin Aero
  • Монитор погоды в Curtin Aero
  • Климат города

АРХИВ ПОГОДЫ в Curtin Aero

Время (UTC), дата Ветер
(напр.,м/с)
 
Видим.   Явления Облачность Т
(С)
Тd
(С)
f
(%)
Тe
(С)
Тes
(С)
Комфортность P
(гПа)
Po
(гПа)
Тmin
(С)
Tmax
(С)
R
(мм)
R24
(мм)
S
(см)
22 10.11 С 2 н/о н/о +24.8 +22.3 86 +32 +32 очень
душно
1007.8 999.1
00 11.11 Ю 2 н/о н/о +31.0 +20.0 52 +37 +37 очень
душно
1008.3 999.6
01 11.11 Ю 1 н/о н/о +33.9 +19.2 42 +39 +39 очень
душно
1008.0 999.3 +22.3
03 11.11 СЗ 4 н/о н/о +38.9 +16.5 27 +41 +41 опасность
перегрева
1006.2 997.5
04 11.11 СЗ 5 н/о н/о +39.7 +14.7 23 +41 +41 опасность
перегрева
1005.2 996.5
06 11.11 З 6 н/о н/о +39.8 +14.1 22 +40 +40 очень
душно
1003.8 995.1
07 11.11 С 5 н/о н/о +39.4 +13.7 22 +40 +40 очень
душно
1003.8 995.1
09 11.11 СЗ 5 н/о н/о +38.1 +15.2 26 +39 +39 очень
душно
1004.0 995.3
10 11.11 СЗ 4 н/о н/о +35.5 +16.8 33 +38 +38 очень
душно
1004.7 996.0
12 11.11 СЗ 2 н/о н/о +31.1 +16.8 42 +43 +43 опасность
перегрева
1006.4 997.7
13 11.11 З 4 н/о н/о +31.4 +18.7 47 +36 +36 очень
душно
1006.7 998.0 +41.2
15 11.11 З 4 н/о н/о +28.7 +19.1 56 +34 +34 очень
душно
1006.5 997.8
16 11.11 З 3 н/о н/о +27.5 +20.8 67 +34 +34 очень
душно
1006.1 997.4
18 11.11 З 4 н/о н/о +26.2 +22.3 79 +34 +34 очень
душно
1005.6 996.9
19 11.11 С 3 н/о н/о +24.7 +22.0 85 +32 +32 очень
душно
1006.3 997.6
21 11.11 С 2 н/о н/о +23.7 +22.0 90 +31 +31 очень
душно
1008.1 999.4
22 11.11 С 2 н/о 1/1 300 м
[]
+25.1 +23.2 89 +34 +34 очень
душно
1009.0 1000.3
00 12.11 С 3 н/о н/о +29.0 +22.0 66 +37 +37 очень
душно
1009.8 1001.1
01 12.11 З 3 н/о н/о +31.1 +20.1 52 +38 +38 очень
душно
1009.4 1000.7 +23.6
03 12.11 З 4 н/о н/о +35.5 +18.1 36 +39 +39 очень
душно
1007.9 999.2
04 12.11 СЗ 4 н/о н/о +36.5 +17.1 32 +39 +39 очень
душно
1006.7 998.0
06 12.11 СЗ 4 н/о н/о +38.6 +17.4 29 +41 +41 опасность
перегрева
1004.7 996.0
07 12.11 СЗ 4 н/о н/о +38.5 +16.2 27 +40 +40 очень
душно
1004.2 995.5
09 12.11 СЗ 5 н/о н/о +37.1 +18.1 33 +41 +41 опасность
перегрева
1004.4 995.7
10 12.11 СЗ 4 н/о н/о +33.5 +20.3 46 +40 +40 очень
душно
1005.1 996.4
12 12.11 З 3 н/о н/о +31.0 +22.9 62 +41 +41 опасность
перегрева
1006.5 997.8
13 12.11 ЮЗ 4 н/о н/о +30.9 +18.6 48 +36 +36 очень
душно
1006.9 998.2 +40.0
15 12.11 ЮЗ 5 н/о н/о +27.6 +20.7 66 +34 +34 очень
душно
1007.0 998.3
16 12.11 ЮЗ 4 н/о н/о +26.5 +21.7 75 +34 +34 очень
душно
1006.4 997.7
18 12.11 З 3 н/о н/о +25.3 +22.6 85 +33 +33 очень
душно
1006.0 997.3
19 12.11 З 3 н/о н/о +24.8 +22.9 89 +33 +33 очень
душно
1006.1 997.4
21 12.11 З 3 н/о н/о +23.6 +22.6 94 +31 +31 очень
душно
1007.1 998.4
22 12.11 З 3 н/о н/о +25.0 +23.1 89 +33 +33 очень
душно
1007.9 999.2
00 13.11 ЮЗ 5 н/о н/о +30.1 +18.2 49 +35 +35 очень
душно
1009.1 1000.4
01 13.11 Ю 5 н/о 5/0
[]
+31.7 +17.2 42 +35 +41 очень
душно
1009.0 1000.3 +23.7
03 13.11 Ю 4 н/о н/о +37.4 +15.2 27 +39 +39 очень
душно
1007.6 998.9
04 13.11 Ю 3 н/о н/о +37.3 +14.0 25 +38 +38 душно 1006.5 997.8
06 13.11 З 2 н/о н/о +40.0 +12.8 20 +40 +40 очень
душно
1004.4 995.7
07 13.11 ЮЗ 5 н/о н/о +40.5 +13.2 20 +40 +40 очень
жарко
1003.8 995.1
09 13.11 З 3 н/о н/о +39.9 +13.4 21 +40 +40 очень
душно
1003.6 994.9
10 13.11 СЗ 5 н/о н/о +32.8 +20.3 48 +39 +39 очень
душно
1004.4 995.7
12 13.11 СЗ 2 н/о н/о +30.7 +14.9 38 +42 +42 опасность
перегрева
1005.9 997.2
13 13.11 З 3 н/о н/о +30.7 +24.6 70 +43 +43 опасность
перегрева
1006.4 997.7 +41.7
15 13.11 З 4 н/о н/о +29.3 +17.2 48 +33 +33 душно 1006.3 997.6
16 13.11 З 3 н/о н/о +27.8 +17.3 53 +32 +32 душно 1006.0 997.3
18 13.11 ЮЗ 4 н/о н/о +26.6 +20.4 69 +33 +33 очень
душно
1005.6 996.9
19 13.11 ЮЗ 5 н/о н/о +26.6 +20.7 70 +33 +33 очень
душно
1006.0 997.3
21 13.11 ЮЗ 3 н/о н/о +26.5 +19.9 67 +32 +32 очень
душно
1007.4 998.7
22 13.11 ЮЗ 4 н/о н/о +27.0 +19.4 63 +33 +33 очень
душно
1008.0 999.3
00 14.11 Ю 5 н/о н/о +33.3 +15.8 35 +36 +36 очень
душно
1008.4 999.7
01 14.11 Ю 4 н/о н/о +33.8 +14.8 32 +35 +35 очень
жарко
1008.5 999.8 +26.1
03 14.11 В 4 н/о н/о +38.4 +14.9 25 +39 +39 очень
душно
1007.1 998.4
04 14.11 В 4 н/о н/о +40.9 +15.0 22 +42 +42 опасность
перегрева
1006.2 997.5
06 14.11 В 5 н/о н/о +41.8 +14.2 20 +42 +42 опасность
перегрева
1004.3 995.6
07 14.11 ЮВ 2 н/о н/о +42.0 +13.6 19 +42 +42 опасность
перегрева
1003.8 995.1
09 14.11 СЗ 4 н/о н/о +38.7 +17.5 29 +42 +42 опасность
перегрева
1003.4 994.7
10 14.11 СЗ 4 н/о н/о +35.7 +18.3 36 +40 +40 очень
душно
1004.1 995.4
12 14.11 С 3 н/о н/о +32.3 +20.5 50 +39 +39 очень
душно
1006.9 998.2
13 14.11 С 6 н/о 10/0
[]
+31.8 +23.1 60 +42 +42 опасность
перегрева
1008.4 999.7 +43.0
15 14.11 С 4 н/о н/о +31.1 +21.9 58 +40 +40 очень
душно
1008.4 999.7
16 14.11 С 5 н/о 10/0
[]
+30.2 +22.1 62 +39 +39 очень
душно
1007.9 999.2
18 14.11 СЗ 4 н/о н/о +28.5 +24.5 79 +40 +40 очень
душно
1007.3 998.6
19 14.11 СЗ 1 н/о н/о +27.8 +25.2 86 +40 +40 очень
душно
1007.6 998.9
21 14.11 Ю 2 н/о н/о +26.8 +25.0 90 +39 +39 очень
душно
1008.8 1000.1
22 14.11 Ю 2 н/о н/о +28.5 +25.5 84 +42 +42 опасность
перегрева
1009.5 1000.8
00 15.11 ЮЗ 2 н/о н/о +32.6 +21.8 53 +41 +41 опасность
перегрева
1010.6 1001.9
01 15.11 ЮВ 3 н/о н/о +34.8 +20.7 44 +42 +42 опасность
перегрева
1010.9 1002.2 +26.6
03 15.11 В 6 н/о н/о +40.5 +12.4 19 +40 +40 очень
жарко
1009.2 1000.5
04 15.11 В 6 н/о н/о +41.5 +10.6 16 +40 +40 очень
жарко
1008.3 999.6
06 15.11 ЮВ 6 н/о н/о +42.4 +9.3 14 +41 +41 опасность
перегрева
1006.1 997.4
07 15.11 СЗ 7 н/о н/о +39.0 +20.7 35 +45 +45 опасность
перегрева
1005.7 997.0
09 15.11 СЗ 6 н/о н/о +33.9 +15.6 33 +44 +44 опасность
перегрева
1005.9 997.2
10 15.11 С 5 н/о н/о +31.7 +21.8 56 +40 +40 очень
душно
1006.7 998.0
12 15.11 С 4 н/о н/о +29.3 +23.3 70 +40 +40 очень
душно
1008.3 999.6
13 15.11 СЗ 4 н/о н/о +28.9 +23.1 71 +39 +39 очень
душно
1009.4 1000.7 +43.2
15 15.11 СЗ 3 н/о н/о +27.9 +24.3 81 +39 +39 очень
душно
1009.1 1000.4
16 15.11 СЗ 3 н/о н/о +27.4 +23.6 80 +37 +37 очень
душно
1008.8 1000.1
18 15.11 СЗ 3 н/о н/о +26.0 +23.9 88 +36 +36 очень
душно
1008.5 999.8
19 15.11 С 2 н/о н/о +25.2 +23.8 92 +34 +34 очень
душно
1008.2 999.5
21 15.11 С 1 н/о н/о +23.5 +23.0 97 +31 +31 очень
душно
1009.5 1000.8
22 15.11 С 3 н/о н/о +25.4 +25.1 98 +36 +36 очень
душно
1009.7 1001.0
00 16.11 СЗ 4 н/о н/о +31.8 +21.9 56 +40 +40 очень
душно
1010.4 1001.7
01 16.11 СЗ 4 н/о н/о +33.5 +20.3 46 +40 +40 очень
душно
1010.1 1001.4 +23.4
03 16.11 С 4 н/о н/о +37.7 +16.6 29 +40 +40 очень
душно
1008.6 999.9
04 16.11 СВ 3 н/о н/о +38.1 +17.5 30 +41 +41 опасность
перегрева
1007.5 998.8
06 16.11 СВ 4 н/о н/о +40.1 +15.7 24 +42 +42 опасность
перегрева
1005.1 996.4
07 16.11 СЗ 6 н/о 1/0
[]
+39.3 +19.0 31 +44 +48 опасность
перегрева
1004.6 995.9
09 16.11 С 5 н/о н/о +37.0 +18.1 33 +41 +41 опасность
перегрева
1004.4 995.7
10 16.11 С 4 н/о н/о +34.4 +18.4 39 +39 +39 очень
душно
1005.1 996.4
12 16.11 С 3 н/о н/о +30.5 +21.9 60 +39 +39 очень
душно
1007.1 998.4
13 16.11 СЗ 3 н/о н/о +30.0 +23.7 69 +41 +41 опасность
перегрева
1008.1 999.4 +41.6
15 16.11 С 3 н/о н/о +28.9 +20.1 59 +35 +35 очень
душно
1008.1 999.4
16 16.11 СЗ 3 н/о н/о +28.3 +22.8 72 +38 +38 очень
душно
1007.9 999.2
18 16.11 С 2 н/о н/о +26.9 +24.4 86 +38 +38 очень
душно
1007.6 998.9
19 16.11 СЗ 3 н/о 10/10 300 м
[]
+27.3 +24.9 87 +39 +39 очень
душно
1007.7 999.0
21 16.11 СЗ 3 н/о н/о +25.9 +24.3 91 +36 +36 очень
душно
1008.4 999.7
22 16.11 С 2 н/о н/о +26.7 +24.7 89 +38 +38 очень
душно
1009.1 1000.4
00 17.11 СЗ 5 н/о н/о +31.3 +22.9 61 +41 +41 опасность
перегрева
1009.5 1000.8
01 17.11 СЗ 4 н/о н/о +33.7 +21.5 49 +42 +42 опасность
перегрева
1009.4 1000.7 +25.9
03 17.11 СЗ 4 н/о н/о +35.2 +21.5 45 +43 +43 опасность
перегрева
1007.5 998.8
04 17.11 ЮЗ 3 н/о н/о +36.6 +20.0 38 +42 +42 опасность
перегрева
1006.7 998.0
06 17.11 СЗ 5 н/о н/о +39.0 +17.7 29 +42 +42 опасность
перегрева
1004.6 995.9
07 17.11 СЗ 4 н/о н/о +39.8 +16.7 26 +42 +42 опасность
перегрева
1003.4 994.7
09 17.11 З 9 н/о н/о +32.8 +23.4 58 +44 +44 опасность
перегрева
1005.8 997.1
10 17.11 В 11 н/о ливневой дождь 10/0
[]
+25.7 +17.1 59 +30 +30 душно 1007.4 998.7
12 17.11 СЗ 7 н/о н/о +30.1 +15.8 42 +33 +33 душно 1007.6 998.9
13 17.11 С 4 н/о в посл. час дождь со снегом {туман} 10/0
[]
+27.0 +18.3 59 +32 +32 очень
душно
1006.8 998.1 +40.5
15 17.11 С 5 н/о н/о +27.9 +24.7 83 +40 +40 очень
душно
1007.2 998.5
16 17.11 С 4 н/о н/о +27.5 +24.7 85 +39 +39 очень
душно
1007.0 998.3
18 17.11 С 3 н/о н/о +26.9 +24.5 87 +38 +38 очень
душно
1006.3 997.6
19 17.11 С 3 н/о 5/5 300 м
[]
+27.2 +25.0 88 +39 +39 очень
душно
1007.0 998.3
21 17.11 С 3 н/о н/о +26.4 +24.6 90 +37 +37 очень
душно
1008.5 999.8

 

Местоположение метеостанции Curtin Aero (Западная Австралия, Австралия): широта -17.58 долгота 123.82 высота над уровнем моря 78 м.

В архиве по умолчанию представлена погода в Curtin Aero за последнюю неделю. Архивные данные за месяц целиком и за предыдущие месяцы, начиная с января 2011 года, Вы можете получить, выбрав интересующий диапазон дат из раскрывающегося списка и нажав кнопку "Ввод!".


*Определитесь, кто Вы:
робот инопланетянин человек

Внимание! Время в таблицах - всемирное. Для получения местного времени необходимо прибавить поправку, которая в Curtin Aero равна 8 ч.

Смотрите также архив погоды в соседних городах и на ближайших метеорологических станциях:

Погода в Derby Aero (Северная территория, Австралия) (30 км)
Погода в West Roebuck (Западная Австралия, Австралия) (163 км)
Погода в Broome Airport (Западная Австралия, Австралия) (173 км)
Погода в Fitzroy Crossing Aero (Западная Австралия, Австралия) (196 км)
Погода в Adele Island (Западная Австралия, Австралия) (241 км)
Погода в Browse Island (Западная Австралия, Австралия) (387 км)
Погода в Mandora (Западная Австралия, Австралия) (394 км)
Погода в Halls Creek Airport (Западная Австралия, Австралия) (413 км)
Погода в Kalumburu (Западная Австралия, Австралия) (474 км)
Погода в Truscott (Западная Австралия, Австралия) (476 км)

Пояснения к столбцам:

Ветер - указаны скорость ветра в м/с - средняя за 10 мин, порывы в срок и между сроками (в фигурных скобках) и направление, откуда дует ветер: С - северный, СВ - северо-восточный, В - восточный, ЮВ - юго-восточный, Ю - южный, ЮЗ - юго-западный, З - западный, СЗ - северо-западный.
Видимость - горизонтальная дальность видимости в метрах или километрах. При видимости от 1 до 10 км при отсутствии осадков обычно наблюдается дымка, при ухудшении видимости до 1 км и менее - туман. В сухую погоду видимость может ухудшаться дымом, пылью или мглою.
Явления - указаны атмосферные явления, наблюдавшиеся в срок или в последний час перед сроком; фигурными скобками обозначены явления, наблюдавшиеся между сроками (за 1-3 часа до срока); квадратными скобками обозначены град или гололедные отложения с указанием их диаметра в мм.
Облачность - указаны через наклонную черту общая и нижняя облачность в баллах и высота нижней границы облаков в метрах; квадратными скобками обозначены формы облаков: Ci - перистые, Cs - перисто-слоистые, Cc - перисто-кучевые, Ac - высококучевые, As - высокослоистые, Sc - слоисто-кучевые, Ns - слоисто-дождевые, Cu - кучевые, Cb - кучево-дождевые. Подробнее классификацию облаков см. в Атласе облаков (PDF).
T - Температура воздуха - температура, измеренная на высоте 2 м над землей.
Td - Температура точки росы - температура, при понижении до которой содержащийся в воздухе водяной пар достигнет насыщения.
f - Относительная влажность воздуха - влажноcть воздуха, измеренная на высоте 2 м над землей.
Te - Эффективная температура - температура, которую ощущает одетый по сезону человек в тени. Характеристика душности погоды. При расчете учитывается влияние влажности воздуха и скорости ветра на теплоощущения человека.
Tes - Эффективная температура на солнце - температура, которую ощущает человек, с поправкой на солнечный нагрев. Характеристика знойности погоды. Зависит от высоты солнца над горизонтом, облачности и скорости ветра. Ночью, в пасмурную погоду, а также при ветре 12 м/с и более поправка равна нулю.
P - Атмосферное давление - приведенное к уровню моря атмосферное давление.
Po - Атмосферное давление - измеренное на уровне метеостанции атмосферное давление.
Tmin - Минимальная температура - минимум температуры воздуха на высоте 2 м над землей.
Tmax - Максимальная температура - максимум температуры воздуха на высоте 2 м над землей.
R - Количество осадков - Количество выпавших осадков за период времени, мм. При наведении курсора мыши на число - период времени, за который выпало указанное количество осадков.
R24 - Количество осадков - Количество выпавших осадков за 24 часа, мм.
S - Снежный покров - Высота снежного покрова, см. При наведении курсора мыши на число - состояние снежного покрова и степень покрытия местности в баллах.